CPA596 VHHH-RJBB

Flight info

Callsign CPA596
Flight time N/A
Altitude 3900
Route DALO1Y DALOL V631 ENVAR M750 MADOG Y53 NIXOV NIXOVA
Aircraft A35K/H-SDE2E3FGHIJ4J5M1RWXYZ/LB2D1

Departure

Time 2026-04-30 22:58
Airport Hong Kong International Airport (VHHH)

Arrival

Time N/A
Airport Kansai International Airport (RJBB)
Time Latitude Longitude Altitude Speed Heading
2026-04-30 22:41 22.31813 113.93247 41 ft 0 kts 71°
2026-04-30 22:47 22.31758 113.93164 40 ft 4 kts
2026-04-30 22:47 22.31712 113.93177 40 ft 4 kts 341°
2026-04-30 22:48 22.31703 113.93180 38 ft 0 kts 341°
2026-04-30 22:50 22.31851 113.93120 41 ft 10 kts 326°
2026-04-30 22:51 22.31846 113.92989 41 ft 13 kts 250°
2026-04-30 22:51 22.31758 113.92716 41 ft 23 kts 251°
2026-04-30 22:52 22.31702 113.92543 41 ft 25 kts 251°
2026-04-30 22:52 22.31581 113.92163 41 ft 29 kts 251°
2026-04-30 22:53 22.31444 113.91739 41 ft 31 kts 251°
2026-04-30 22:53 22.31304 113.91306 41 ft 26 kts 251°
2026-04-30 22:53 22.31242 113.91116 41 ft 28 kts 250°
2026-04-30 22:54 22.31114 113.90718 41 ft 21 kts 251°
2026-04-30 22:55 22.30948 113.90203 41 ft 25 kts 251°
2026-04-30 22:55 22.30864 113.89945 41 ft 2 kts 251°
2026-04-30 22:56 22.30891 113.89829 41 ft 8 kts 336°
2026-04-30 22:56 22.31056 113.89773 41 ft 6 kts 18°
2026-04-30 22:57 22.31129 113.89905 41 ft 11 kts 70°
2026-04-30 22:57 22.31395 113.90730 42 ft 124 kts 71°
2026-04-30 22:58 22.32205 113.93066 670 ft 184 kts 66°
2026-04-30 22:59 22.33556 113.97388 2470 ft 212 kts 78°
2026-04-30 22:59 22.34337 114.02178 4358 ft 221 kts 81°